Zurück zum Katalog

ATLAS 5 CENTAUR DEB

LostHEO
NORAD 44006·DEBRIS·🇺🇸 United States

Gestartet Sep 17, 2014 von Cape Canaveral Space Force Station

Loading…

Nächste Überflüge (nächste 24 Stunden)

TLE

VeraltetSource: Space-Track

Epoche: Jul 24, 2026, 10:59 UTC

1 44006U 14055BM  26205.45798036 -.00000171  00000-0  00000-0 0  9996
2 44006  20.6097 123.9883 4853271 203.8595 122.8379  1.88616347 53954

Verfolge ATLAS 5 CENTAUR DEB in Echtzeit mit AllMySat

Download on the App Store